Regional Weather Roundup
Issued by NWS

Home | Current Version | Previous Version | Graphics & Text | Print | Product List | Glossary On
Versions: 1 2 3 4 5 6 7 8 9 10 11 12 13 14 15 16 17 18 19 20 21 22 23 24 25 26 27 28 29 30 31 32 33 34 35 36 37 38 39 40 41 42 43 44 45 46 47 48 49 50
000
ASUS43 KIND 232159
RWRIN

WEATHER ROUNDUP FOR INDIANA
NATIONAL WEATHER SERVICE INDIANAPOLIS IN
600 PM EDT TUE AUG 23 2016

NOTE: "FAIR" INDICATES FEW OR NO CLOUDS BELOW 12,000 FEET WITH NO
SIGNIFICANT WEATHER AND/OR OBSTRUCTIONS TO VISIBILITY.

* - STATION DOES NOT REPORT WEATHER SUCH AS PRECIPITATION OR FOG.

+ - STATION NOT QUALITY CONTROLLED BY THE NATIONAL WEATHER SERVICE.
    USE DATA WITH CAUTION...ESPECIALLY DEWPOINT AND RELATIVE
    HUMIDITY OBSERVATIONS.

INZ001>003-010>013-019-020-232300-
NORTHWEST INDIANA

CITY           SKY/WX    TMP DP  RH WIND       PRES   REMARKS
GARY /AIRPORT/ MOSUNNY   81  61  50 S9        30.16S
KNOX *+        SUNNY     77  34  20 S9        30.18S
MONTICELLO +   MOSUNNY   79  56  45 S7        30.18S
RENSSELAER +   MOSUNNY   79  61  53 SE8       30.18S

$$

LMZ046-743>745-232300-
SOUTHERN LAKE MICHIGAN

STATION/POSITION TIME  TEMP    WIND        PRES    WAVE
                       AIR SEA DIR/SP/G            HT
                 (UTC) (F)     (DEG/KT/KT) (MB)    (FT)
BURNS HARBOR     2100   79     190/ 13/ 21 1021.7S
MICHIGAN CITY    2100   78     170/ 12/ 15   N/A
5NW MICH CITY    2100   77 74  180/ 14/ 17   N/A     1

$$

INZ004-005-014>016-021>024-232300-
NORTH CENTRAL INDIANA

CITY           SKY/WX    TMP DP  RH WIND       PRES   REMARKS
ELKHART        MOSUNNY   79  59  50 S12G18    30.20S
GOSHEN         MOSUNNY   78  58  49 S12       30.20S
PERU/GRISSOM   SUNNY     81  61  50 SW10      30.19S
SOUTH BEND     MOSUNNY   79  60  52 S12       30.19S

$$

INZ006>009-017-018-025>027-232300-
NORTHEAST INDIANA

CITY           SKY/WX    TMP DP  RH WIND       PRES   REMARKS
ANGOLA *+      MOSUNNY   81  61  50 SW9       30.21F
FORT WAYNE     MOSUNNY   80  58  46 SW13      30.22S

$$

INZ028-029-035-036-043>045-051>053-232300-
WEST CENTRAL INDIANA

CITY           SKY/WX    TMP DP  RH WIND       PRES   REMARKS
CRAWFORDSVL +  MOSUNNY   75  63  67 S6        30.20S
GREENCASTLE +  MOSUNNY   77  66  69 S3        30.21S
LAFAYETTE      SUNNY     78  62  57 S7        30.18S
TERRE HAUTE    CLOUDY    80  61  52 S9        30.19F

$$

INZ030>032-037>040-046>048-054>057-064-065-232300-
CENTRAL INDIANA

CITY           SKY/WX    TMP DP  RH WIND       PRES   REMARKS
COLUMBUS       SUNNY     79  63  57 S7        30.22S
INDIANAPOLIS   CLOUDY    79  61  53 S12       30.20S
-EAGLE CREEK   CLOUDY    79  59  50 S8        30.20S
KOKOMO *+      MOSUNNY   79  59  50 S9        30.20S
MT COMFORT *+  SUNNY     77  63  61 S6        30.22S
SHELBYVILLE    SUNNY     79  60  52 S9        30.21S

$$

INZ033-034-041-042-049-050-058-059-232300-
EAST CENTRAL INDIANA

CITY           SKY/WX    TMP DP  RH WIND       PRES   REMARKS
MUNCIE         SUNNY     80  59  48 SW9       30.22S

$$

INZ060-061-067>069-081>083-085>088-232300-
SOUTHWEST INDIANA

CITY           SKY/WX    TMP DP  RH WIND       PRES   REMARKS
EVANSVILLE     CLOUDY    80  64  58 S6        30.19F
HUNTINGBURG *+ CLOUDY    79  63  57 S6        30.21S

$$

INZ062-063-066-070>080-084-089>092-232300-
SOUTH CENTRAL AND SOUTHEAST INDIANA

CITY           SKY/WX    TMP DP  RH WIND       PRES   REMARKS
BLOOMINGTON    PTSUNNY   79  62  56 S7        30.21S
MADISON *+     SUNNY     81  57  44 SE3       30.24S

$$





USA.gov is the U.S. government's official web portal to all federal, state and local government web resources and services.